sat.trackr.live / text

‹ back to catalog

STARLINK-31842

NORAD 59672 · 2024-084U

PAYLOAD ACTIVE UNKNOWN

§ Identity

Operator
Country
US
Launch date
2024-05-06
Launch site
AFETR
Launch vehicle
Mass (kg)
RCS (m²)

Purposes: comms

External: N2YO · Heavens-Above · Gunter

§ Orbital elements

Epoch: 2026-05-25T04:50:47.819904Z

Period
94.27 min
Inclination
43.0003°
Eccentricity
0.0001207
Mean motion
15.27576462 rev/d
Perigee alt
482.2 km
Apogee alt
483.9 km
Semi-major
6,861.2 km
B*
5.2663e-5
RAAN
326.3252°
Arg perigee
268.7944°
Mean anomaly
91.2770°
Rev number
11,611

§ Raw data

STARLINK-318421 59672U 24084U   26145.20194236  .00001187  00000+0  52663-4 0  99942 59672  43.0003 326.3252 0001207 268.7944  91.2770 15.27576462116115

JSON: /api/v1/satellites/59672 · /tle

For live sub-satellite position, see the globe view (requires WebGL).

§ Visibility from observer

Set your observer location to see the next 7 days of passes ≥ 10°. The values pass through the URL so the page stays shareable.

No JS? Fill the form by hand. The geolocation button needs JavaScript.